[[{"header":{"parameterUnit":"m.s-1","parameterCategory":1,"la1":30.2991,"la2":30.254,"lo1":-89.0895,"lo2":-89.0444,"dy":0.0017,"dx":0.0017,"nx":28,"ny":28,"refTime":"2023-11-08T09:00:00:Z","depth":0,"parameterNumber":2,"parameterNumberName":"U-component_of_WINDS"},"data":[0,0,0,0,0,0,0,0,0,0,0,0,0,0,0,0,0,0,0,0,0,0,0,0,0,0,0,0,0,0,0,0,0,0,0,0,0,0,0,0,0,0,0,0,0,0,0,0,0,0,0,0,0,0,0,0,0,0,0.9577,0.9577,0,0.9628,0.9628,0.9629,0.96,0.9599,0.9597,0.9596,0.9643,0.9646,0.9648,0,0,0,0,0,0,0,0,0,0,0,0,0,0.945,0.9452,0.9577,0.9577,0.9578,0.9627,0.9628,0.9629,0.96,0.9599,0.9597,0.9595,0.9643,0.9646,0.9649,0,0,0,0,0,0,0,0,0,0,0,0,0,0.9503,0.9453,0.9576,0.957,0.957,0.9627,0.9628,0.9629,0.9601,0.9599,0.9596,0.9594,0.9642,0.9645,0.9649,0.9715,0,0,0.9661,0.9663,0,0,0,0,0,0,0,0,0.95,0.9508,0.957,0.957,0.957,0.9605,0.9601,0.9658,0.9601,0.9589,0.9596,0.9593,0.9632,0.9637,0.9651,0.9717,0.9719,0.9661,0.9664,0.9665,0.9666,0,0,0,0,0,0,0,0.9496,0.9505,0.9597,0.9571,0.9571,0.9562,0.9568,0.9611,0.9621,0.959,0.9588,0.9594,0.9632,0.9647,0.9652,0.972,0.9661,0.9665,0.9667,0.9668,0.9842,0.9845,0,0,0,0,0,0,0.9494,0.9502,0.9595,0.9598,0.9529,0.9567,0.9572,0.9596,0.9621,0.9623,0.9596,0.9593,0.9641,0.9647,0.9653,0.9732,0.9665,0.9669,0.9671,0.984,0.9843,0.9845,0,0,0,0,0,0,0.9491,0.9502,0.9593,0.955,0.9561,0.9571,0.9598,0.9598,0.9614,0.9626,0.9627,0.961,0.964,0.9648,0.97,0.9733,0.9671,0.9674,0.9837,0.9841,0.9844,0.9889,0,0,0,0,0,0,0.9488,0.9502,0.9528,0.9551,0.9563,0.964,0.96,0.9601,0.9621,0.9617,0.9639,0.9641,0.9639,0.9694,0.9704,0.9737,0.9677,0.9834,0.9839,0.9843,0.9885,0.9894,0.9901,0,0,0,0,0,0.9483,0.9537,0.9529,0.9541,0.9596,0.9642,0.9649,0.9647,0.9624,0.9649,0.9657,0.964,0.9728,0.97,0.971,0.9745,0.9832,0.9838,0.9843,0.9881,0.9892,0.9901,0,0,0,0,0,0,0.9516,0.954,0.9531,0.9595,0.9617,0.9638,0.967,0.9659,0.9687,0.9682,0.9677,0.9682,0.9736,0.9746,0.9715,0.981,0.9776,0.9784,0.9802,0.9812,0.982,0.9817,0.968,0,0,0,0,0,0.9531,0.9568,0.9587,0.9641,0.9653,0.966,0.9679,0.9676,0.9698,0.9707,0.9718,0.9739,0.9771,0.9792,0.9822,0.9886,0.989,0.9915,0.9923,0.993,0.9936,0.997,0.9981,0.9862,0.9862,0.9862,0,0,0.9562,0.958,0.9603,0.9648,0.9665,0.9702,0.9667,0.9708,0.9735,0.9712,0.9763,0.9772,0.9795,0.9853,0.9879,0.9862,0.997,0.9937,0.9942,0.9945,0.9977,0.9988,0.9998,0.9866,0.9865,0.9865,0,0,0.9637,0.9654,0.9702,0.9719,0.9746,0.975,0.9762,0.9784,0.979,0.9841,0.9825,0.9856,0.9911,0.9928,0.9944,1.0025,1.0011,1.0035,1.0078,1.0111,1.0121,1.0129,1.0157,1.0168,1.0042,1.0042,1.0042,0,0.9671,0.9728,0.9727,0.9769,0.9789,0.9772,0.9819,0.9835,0.987,0.9883,0.9864,0.9934,0.9948,1.0009,1.003,1.0043,1.0055,1.0032,1.012,1.0128,1.0136,1.0163,1.0174,1.0045,1.0044,1.0044,1.0044,0,0.9769,0.9808,0.9843,0.9878,0.9902,0.9946,0.995,0.9974,0.9968,0.9974,1.0026,1.0042,1.0075,1.009,1.0084,1.0151,1.014,1.0121,1.0086,1.015,1.0175,1.0186,1.0049,1.0048,1.0047,1.0046,0,0,0.9865,0.99,0.9913,0.9929,0.9957,0.9986,1.0029,1.0063,1.0084,1.0108,1.0143,1.019,1.0173,1.0191,1.0187,1.0216,1.0279,1.0193,1.0194,1.0208,1.0353,1.0366,1.0378,1.027,1.0272,1.0273,1.035,0,0.9941,1.0019,1.0019,1.0089,1.0125,1.011,1.0147,1.0167,1.0174,1.0204,1.0211,1.0245,1.0219,1.023,1.0258,1.0266,1.0308,1.026,1.0301,1.0302,1.0295,1.0392,1.0407,1.0478,1.036,1.0362,1.0363,0,1.0041,1.007,1.0145,1.0168,1.0183,1.0217,1.0248,1.0277,1.03,1.0302,1.0323,1.0315,1.0357,1.0322,1.0379,1.0347,1.0363,1.0369,1.0372,1.0375,1.0336,1.0397,1.0501,1.0512,1.0379,1.0378,1.0377,0,1.0103,1.0161,1.0213,1.0227,1.0256,1.028,1.0292,1.0313,1.0333,1.036,1.0373,1.0403,1.042,1.0443,1.0443,1.0418,1.05,1.0466,1.0503,1.0503,1.052,1.0519,1.0628,1.0532,1.0532,1.0532,1.0531,0,1.0188,1.0234,1.0242,1.0274,1.0324,1.0324,1.0373,1.0383,1.0402,1.0434,1.0422,1.0452,1.0451,1.0481,1.0481,1.0528,1.0535,1.0537,1.0537,1.0538,1.0538,1.0549,1.0543,1.0535,1.0534,1.0533,1.0533,0,1.0266,1.0273,1.0329,1.0352,1.0358,1.0395,1.0413,1.0443,1.0449,1.049,1.0499,1.0508,1.0543,1.0545,1.0585,1.0585,1.0642,1.0636,1.0635,1.0634,1.067,1.0666,1.0789,1.0805,1.07,1.0701,1.0701,0,1.0319,1.0354,1.0382,1.0404,1.0418,1.0453,1.0475,1.0475,1.0497,1.0526,1.0552,1.0586,1.0613,1.067,1.0678,1.0709,1.0703,1.0744,1.0707,1.0707,1.0702,1.07,1.0703,1.0751,1.0752,1.0753,1.0754,0,1.0413,1.0415,1.0447,1.0481,1.0507,1.0533,1.0557,1.0576,1.0579,1.0604,1.0641,1.0662,1.0704,1.0737,1.0767,1.0778,1.0766,1.0765,1.0775,1.0777,1.0774,1.0775,1.0654,1.0762,1.0761,1.0761,1.076,1.076,1.048,1.051,1.0535,1.0571,1.059,1.0613,1.0642,1.0652,1.0683,1.0718,1.0716,1.0757,1.0777,1.0816,1.083,1.086,1.0846,1.086,1.0864,1.0867,1.0871,1.0771,1.0865,1.0865,1.0865,1.0865,1.0864,0,1.0572,1.0588,1.0621,1.0656,1.0685,1.0673,1.0699,1.0723,1.0759,1.0781,1.0808,1.085,1.0883,1.0894,1.0926,1.0948,1.0943,1.0956,1.0954,1.0956,1.0882,1.087,1.0959,1.0959,1.0959,1.0959,1.0959,1.0959,1.0624,1.0675,1.068,1.074,1.0754,1.0796,1.0811,1.0832,1.0849,1.0897,1.0925,1.0933,1.095,1.0983,1.1012,1.1014,1.1026,1.1041,1.1041,1.0971,1.0962,1.0952,1.0941,1.1044,1.1044,1.1112,1.1113,1.1113]},{"header":{"parameterUnit":"m.s-1","parameterCategory":1,"la1":30.2991,"la2":30.254,"lo1":-89.0895,"lo2":-89.0444,"dy":0.0017,"dx":0.0017,"nx":28,"ny":28,"refTime":"2023-11-08T09:00:00:Z","depth":0,"parameterNumber":3,"parameterNumberName":"V-component_of_WINDS"},"data":[0,0,0,0,0,0,0,0,0,0,0,0,0,0,0,0,0,0,0,0,0,0,0,0,0,0,0,0,0,0,0,0,0,0,0,0,0,0,0,0,0,0,0,0,0,0,0,0,0,0,0,0,0,0,0,0,0,0,1.5547,1.5549,0,1.5687,1.5689,1.569,1.5716,1.5715,1.5714,1.5713,1.5857,1.5862,1.5867,0,0,0,0,0,0,0,0,0,0,0,0,0,1.5302,1.5306,1.5547,1.5549,1.555,1.5687,1.5689,1.569,1.5717,1.5715,1.5714,1.5713,1.5856,1.5861,1.5867,0,0,0,0,0,0,0,0,0,0,0,0,0,1.5422,1.5308,1.5547,1.558,1.5584,1.5686,1.5689,1.5691,1.5717,1.5715,1.5713,1.5712,1.5854,1.5861,1.5868,1.5947,0,0,1.5891,1.5894,0,0,0,0,0,0,0,0,1.5415,1.5431,1.5573,1.5578,1.5583,1.5682,1.5655,1.5777,1.5717,1.5667,1.5713,1.5711,1.5801,1.5812,1.5842,1.5954,1.596,1.5891,1.5896,1.5899,1.5901,0,0,0,0,0,0,0,1.5407,1.5425,1.5602,1.5575,1.5581,1.5588,1.5603,1.5678,1.5741,1.5671,1.5673,1.5689,1.5803,1.5835,1.5846,1.5962,1.5891,1.5898,1.5902,1.5905,1.6145,1.6146,0,0,0,0,0,0,1.5392,1.5418,1.5598,1.5607,1.5493,1.5593,1.561,1.5652,1.5741,1.5752,1.569,1.569,1.5823,1.5837,1.5851,1.5949,1.5899,1.5906,1.591,1.6143,1.6145,1.6147,0,0,0,0,0,0,1.5387,1.5408,1.5592,1.5513,1.5537,1.5599,1.5646,1.5656,1.5688,1.5755,1.5767,1.5712,1.5823,1.5841,1.5923,1.5954,1.5909,1.5916,1.614,1.6143,1.6146,1.6146,0,0,0,0,0,0,1.538,1.5406,1.5437,1.5513,1.5541,1.5662,1.5648,1.566,1.5701,1.5701,1.5779,1.579,1.5823,1.5912,1.593,1.5964,1.5921,1.6138,1.6142,1.6145,1.6143,1.6148,1.6153,0,0,0,0,0,1.5371,1.5432,1.5439,1.546,1.5581,1.5664,1.568,1.5716,1.5703,1.5735,1.5777,1.5787,1.5947,1.592,1.5941,1.5977,1.6136,1.6141,1.6145,1.6141,1.6147,1.6153,0,0,0,0,0,0,1.536,1.5443,1.5451,1.5539,1.5594,1.5668,1.5709,1.5722,1.5782,1.578,1.5823,1.584,1.592,1.5956,1.5924,1.6057,1.6041,1.605,1.6031,1.6037,1.6042,1.6032,1.5927,0,0,0,0,0,1.5367,1.5427,1.5497,1.5567,1.5594,1.5647,1.5684,1.5707,1.5766,1.579,1.5839,1.5896,1.5959,1.6,1.6062,1.6148,1.6165,1.6183,1.6188,1.6191,1.6199,1.6246,1.6255,1.6162,1.6162,1.6162,0,0,1.5383,1.5436,1.5472,1.5566,1.5612,1.5673,1.5666,1.5732,1.5778,1.58,1.5881,1.5918,1.5985,1.6069,1.6108,1.6102,1.6228,1.6197,1.6199,1.6205,1.6252,1.626,1.6268,1.6165,1.6164,1.6164,0,0,1.5445,1.5491,1.5554,1.5599,1.5667,1.5702,1.5716,1.5789,1.5814,1.5895,1.5913,1.5968,1.6076,1.6122,1.616,1.6235,1.6246,1.6254,1.6279,1.6325,1.6332,1.6339,1.6366,1.6375,1.6261,1.6261,1.6261,0,1.5457,1.555,1.5585,1.565,1.569,1.5711,1.5776,1.5818,1.5903,1.593,1.5922,1.6056,1.6103,1.6197,1.6216,1.6245,1.6263,1.6246,1.6328,1.6335,1.6342,1.6368,1.6378,1.6261,1.6261,1.6261,1.6261,0,1.5561,1.5625,1.5668,1.5748,1.5794,1.5857,1.5902,1.5944,1.5961,1.5996,1.6078,1.6133,1.6206,1.623,1.6249,1.6327,1.6321,1.6319,1.6304,1.6351,1.6376,1.6386,1.6262,1.6262,1.6262,1.6262,0,0,1.5622,1.5719,1.5735,1.5771,1.5846,1.5896,1.596,1.6031,1.6065,1.6122,1.6177,1.6266,1.6265,1.6308,1.6331,1.6371,1.6427,1.6365,1.6367,1.6375,1.6516,1.6517,1.6528,1.6433,1.6436,1.6437,1.651,0,1.5693,1.5808,1.584,1.5938,1.5997,1.6016,1.6072,1.6124,1.6157,1.6212,1.6249,1.6311,1.6305,1.633,1.637,1.6411,1.6456,1.6406,1.6485,1.6487,1.6469,1.6542,1.6544,1.661,1.652,1.6522,1.6523,0,1.5792,1.585,1.5952,1.6019,1.6045,1.6094,1.616,1.6212,1.6271,1.6292,1.6338,1.6358,1.6425,1.6404,1.6496,1.6462,1.6495,1.652,1.6523,1.6533,1.6509,1.6554,1.6633,1.6643,1.6539,1.6538,1.6537,0,1.5827,1.593,1.6004,1.6035,1.6114,1.6148,1.6182,1.6239,1.6279,1.6336,1.6362,1.6427,1.6463,1.6512,1.6548,1.6529,1.6637,1.6619,1.6657,1.6656,1.668,1.6678,1.6766,1.67,1.67,1.6699,1.6699,0,1.5904,1.5966,1.6021,1.6067,1.6136,1.6172,1.624,1.6275,1.6325,1.6378,1.6398,1.6447,1.6491,1.6546,1.6575,1.6646,1.6662,1.6681,1.6688,1.668,1.6678,1.6704,1.6701,1.6702,1.6702,1.6701,1.6701,0,1.5955,1.5995,1.6077,1.6144,1.6162,1.621,1.6268,1.6313,1.6345,1.6412,1.6429,1.6481,1.6546,1.6586,1.6669,1.6688,1.6767,1.6772,1.6748,1.6751,1.6786,1.6783,1.6895,1.6911,1.6833,1.6834,1.6834,0,1.6003,1.6051,1.6122,1.6158,1.6192,1.6251,1.6291,1.6327,1.6368,1.6436,1.6473,1.6539,1.6594,1.6697,1.6742,1.6805,1.6813,1.6847,1.6822,1.6812,1.6814,1.6811,1.6816,1.6852,1.6853,1.6853,1.6854,0,1.6082,1.6098,1.6155,1.6218,1.6264,1.6316,1.6367,1.6396,1.644,1.6485,1.6551,1.6594,1.6677,1.6743,1.6809,1.6844,1.6857,1.686,1.6873,1.6866,1.685,1.6859,1.676,1.6859,1.6858,1.6858,1.6857,1.6857,1.6134,1.6177,1.6233,1.6295,1.6336,1.6383,1.6428,1.6465,1.6521,1.6592,1.6609,1.6679,1.6734,1.6824,1.6861,1.6915,1.691,1.6928,1.6932,1.6937,1.6937,1.6839,1.6927,1.6927,1.6927,1.6927,1.6927,0,1.6215,1.6251,1.6308,1.6378,1.6426,1.6431,1.6487,1.6527,1.6588,1.6638,1.6691,1.6767,1.6829,1.6878,1.6942,1.6976,1.6983,1.6992,1.6991,1.6998,1.6938,1.6921,1.6985,1.6985,1.6985,1.6985,1.6985,1.6985,1.6263,1.6336,1.6358,1.6451,1.6487,1.6555,1.6586,1.6629,1.6669,1.6752,1.6804,1.6835,1.6884,1.6952,1.7009,1.7021,1.7045,1.7052,1.7066,1.7009,1.7003,1.6997,1.6981,1.7057,1.7057,1.7122,1.7122,1.7123]}]]